| time (UTC) | temp F | wind direction | speed knots | gust knots | rain 1hr in | rain 24hr in | rain mn in | humidity % | barometer mb |
| 20260510072328 | 49 | 184 | 1.7 | 2.6 | 0.00 | 0.00 | 0.00 | 99 | 1011.8 |
| 20260510071824 | 49 | 99 | 2.6 | 2.6 | 0.00 | 0.00 | 0.00 | 99 | 1011.8 |
| 20260510071320 | 49 | 101 | 0.0 | 1.7 | 0.00 | 0.00 | 0.00 | 99 | 1012.1 |
| 20260510070820 | 49 | 101 | 0.9 | 1.7 | 0.00 | 0.00 | 0.00 | 99 | 1012.2 |
| 20260510070311 | 49 | 103 | 0.9 | 2.6 | 0.00 | 0.00 | 0.00 | 99 | 1012.2 |
| 20260510065810 | 49 | 49 | 0.0 | 1.7 | 0.00 | 0.00 | 0.00 | 99 | 1012.3 |
| 20260510065308 | 49 | 76 | 0.0 | 1.7 | 0.00 | 0.00 | 0.00 | 99 | 1012.4 |
| 20260510064804 | 49 | 135 | 0.0 | 2.6 | 0.00 | 0.00 | 0.00 | 99 | 1012.8 |
| 20260510064302 | 49 | 89 | 0.9 | 1.7 | 0.00 | 0.00 | 0.00 | 99 | 1012.7 |
| 20260510063757 | 49 | 76 | 0.0 | 1.7 | 0.00 | 0.00 | 0.00 | 99 | 1012.7 |
| 20260510063253 | 49 | 48 | 0.9 | 3.5 | 0.00 | 0.00 | 0.00 | 99 | 1012.9 |
| 20260510062751 | 49 | 77 | 0.9 | 1.7 | 0.00 | 0.00 | 0.00 | 99 | 1013.1 |
| 20260510062246 | 49 | 4 | 0.0 | 1.7 | 0.00 | 0.00 | 0.00 | 99 | 1013.4 |
| 20260510061742 | 49 | 41 | 0.0 | 2.6 | 0.00 | 0.00 | 0.00 | 99 | 1013.5 |
| 20260510061239 | 49 | 64 | 1.7 | 2.6 | 0.00 | 0.00 | 0.00 | 99 | 1013.7 |
| 20260510060735 | 49 | 229 | 0.9 | 2.6 | 0.00 | 0.00 | 0.00 | 99 | 1013.8 |
| 20260510060232 | 49 | 28 | 1.7 | 1.7 | 0.00 | 0.00 | 0.00 | 99 | 1013.5 |
| 20260510055729 | 49 | 43 | 2.6 | 7.0 | 0.00 | 0.00 | 0.00 | 99 | 1013.5 |
| 20260510055227 | 48 | 87 | 2.6 | 4.3 | 0.00 | 0.00 | 0.00 | 99 | 1013.5 |
| 20260510054727 | 48 | 0 | 0.9 | 4.3 | 0.00 | 0.00 | 0.00 | 99 | 1013.6 |
| 20260510054223 | 48 | 78 | 1.7 | 2.6 | 0.00 | 0.00 | 0.00 | 99 | 1013.5 |
| 20260510053722 | 48 | 154 | 0.9 | 2.6 | 0.00 | 0.00 | 0.00 | 99 | 1013.3 |
| 20260510053219 | 48 | 72 | 1.7 | 2.6 | 0.00 | 0.00 | 0.00 | 99 | 1013.4 |
| 20260510052715 | 48 | 75 | 1.7 | 2.6 | 0.00 | 0.00 | 0.00 | 99 | 1013.5 |
| 20260510052211 | 48 | 85 | 1.7 | 2.6 | 0.00 | 0.00 | 0.00 | 99 | 1013.3 |
| 20260510051707 | 48 | 182 | 0.9 | 3.5 | 0.00 | 0.00 | 0.00 | 99 | 1013.0 |
| 20260510051204 | 48 | 135 | 0.0 | 1.7 | 0.00 | 0.00 | 0.00 | 99 | 1013.1 |
| 20260510050701 | 48 | 261 | 0.0 | 1.7 | 0.00 | 0.00 | 0.00 | 99 | 1013.2 |
| 20260510050158 | 48 | 354 | 1.7 | 2.6 | 0.00 | 0.00 | 0.00 | 99 | 1013.0 |
| 20260510045655 | 48 | 10 | 1.7 | 3.5 | 0.00 | 0.00 | 0.00 | 99 | 1012.8 |
| 20260510045152 | 48 | 40 | 1.7 | 3.5 | 0.00 | 0.00 | 0.00 | 99 | 1012.9 |
| 20260510044648 | 48 | 47 | 0.9 | 2.6 | 0.00 | 0.00 | 0.00 | 99 | 1012.7 |
| 20260510044145 | 48 | 72 | 2.6 | 3.5 | 0.00 | 0.00 | 0.00 | 99 | 1012.7 |
| 20260510043641 | 48 | 68 | 1.7 | 2.6 | 0.00 | 0.00 | 0.00 | 99 | 1012.6 |
| 20260510043137 | 48 | 89 | 2.6 | 3.5 | 0.00 | 0.00 | 0.00 | 99 | 1012.3 |
| 20260510042635 | 47 | 120 | 0.0 | 2.6 | 0.00 | 0.00 | 0.00 | 99 | 1012.6 |
| 20260510042131 | 47 | 153 | 0.0 | 3.5 | 0.00 | 0.00 | 0.00 | 99 | 1012.5 |
| 20260510041628 | 47 | 100 | 2.6 | 2.6 | 0.00 | 0.00 | 0.00 | 99 | 1012.3 |
| 20260510041125 | 47 | 125 | 0.9 | 2.6 | 0.00 | 0.00 | 0.00 | 99 | 1012.1 |
| 20260510040623 | 47 | 80 | 1.7 | 2.6 | 0.00 | 0.00 | 0.00 | 99 | 1011.9 |
| 20260510040119 | 47 | 124 | 0.9 | 2.6 | 0.00 | 0.00 | 0.00 | 99 | 1011.8 |
| 20260510035615 | 47 | 105 | 1.7 | 2.6 | 0.00 | 0.00 | 0.00 | 99 | 1011.7 |
| 20260510035114 | 46 | 103 | 1.7 | 2.6 | 0.00 | 0.00 | 0.00 | 99 | 1011.7 |
| 20260510034612 | 47 | 93 | 0.0 | 1.7 | 0.00 | 0.00 | 0.00 | 99 | 1011.6 |
| 20260510034109 | 47 | 167 | 1.7 | 1.7 | 0.00 | 0.00 | 0.00 | 99 | 1011.9 |
| 20260510033606 | 47 | 87 | 1.7 | 2.6 | 0.00 | 0.00 | 0.00 | 99 | 1011.7 |
| 20260510033103 | 46 | 199 | 0.0 | 1.7 | 0.00 | 0.00 | 0.00 | 99 | 1011.8 |
| 20260510032559 | 47 | 157 | 1.7 | 2.6 | 0.00 | 0.00 | 0.00 | 99 | 1011.9 |
| 20260510032055 | 47 | 63 | 0.0 | 1.7 | 0.00 | 0.00 | 0.00 | 99 | 1011.7 |
| 20260510031550 | 47 | 105 | 1.7 | 1.7 | 0.00 | 0.00 | 0.00 | 99 | 1011.9 |
| 20260510031047 | 48 | 224 | 0.0 | 1.7 | 0.00 | 0.00 | 0.00 | 99 | 1011.8 |
| 20260510030542 | 47 | 103 | 0.0 | 2.6 | 0.00 | 0.00 | 0.00 | 99 | 1011.7 |
| 20260510030040 | 47 | 124 | 0.0 | 0.9 | 0.00 | 0.00 | 0.00 | 99 | 1011.7 |
| 20260510025537 | 48 | 186 | 0.0 | 0.0 | 0.00 | 0.00 | 0.00 | 99 | 1011.8 |
| 20260510025035 | 47 | 126 | 0.9 | 2.6 | 0.00 | 0.00 | 0.00 | 99 | 1011.7 |
| 20260510024531 | 47 | 95 | 1.7 | 2.6 | 0.00 | 0.00 | 0.00 | 99 | 1011.8 |
| 20260510024027 | 47 | 230 | 0.0 | 0.9 | 0.00 | 0.00 | 0.00 | 99 | 1011.9 |
| 20260510023523 | 47 | 75 | 0.0 | 0.9 | 0.00 | 0.00 | 0.00 | 99 | 1011.8 |
| 20260510023021 | 47 | 75 | 0.0 | 0.9 | 0.00 | 0.00 | 0.00 | 99 | 1011.7 |
| 20260510022520 | 47 | 67 | 0.0 | 0.9 | 0.00 | 0.00 | 0.00 | 99 | 1011.7 |
| 20260510022020 | 48 | 117 | 1.7 | 1.7 | 0.00 | 0.00 | 0.00 | 99 | 1012.0 |
| 20260510021517 | 48 | 124 | 1.7 | 2.6 | 0.00 | 0.00 | 0.00 | 99 | 1011.8 |
| 20260510021014 | 48 | 166 | 0.0 | 1.7 | 0.00 | 0.00 | 0.00 | 99 | 1011.8 |
| 20260510020508 | 47 | 89 | 0.0 | 1.7 | 0.00 | 0.00 | 0.00 | 99 | 1011.7 |
| 20260510020004 | 48 | 55 | 0.0 | 1.7 | 0.00 | 0.00 | 0.00 | 99 | 1011.6 |
| 20260510015459 | 48 | 94 | 0.9 | 1.7 | 0.00 | 0.00 | 0.00 | 99 | 1011.7 |
| 20260510014955 | 48 | 39 | 0.9 | 1.7 | 0.00 | 0.00 | 0.00 | 99 | 1011.7 |
| 20260510014453 | 48 | 103 | 0.9 | 1.7 | 0.00 | 0.00 | 0.00 | 99 | 1011.6 |
| 20260510013949 | 48 | 141 | 0.0 | 1.7 | 0.00 | 0.00 | 0.00 | 99 | 1011.7 |
| 20260510013444 | 48 | 73 | 1.7 | 2.6 | 0.00 | 0.00 | 0.00 | 99 | 1011.6 |
| 20260510012940 | 49 | 128 | 1.7 | 1.7 | 0.00 | 0.00 | 0.00 | 99 | 1011.5 |
| 20260510012435 | 49 | 122 | 1.7 | 1.7 | 0.00 | 0.00 | 0.00 | 99 | 1011.6 |
| 20260510011930 | 49 | 118 | 0.0 | 2.6 | 0.00 | 0.00 | 0.00 | 99 | 1011.4 |
| 20260510011425 | 50 | 205 | 1.7 | 2.6 | 0.00 | 0.00 | 0.00 | 99 | 1011.2 |
| 20260510010921 | 50 | 110 | 0.0 | 1.7 | 0.00 | 0.00 | 0.00 | 99 | 1011.2 |
| 20260510010419 | 50 | 208 | 0.9 | 2.6 | 0.00 | 0.00 | 0.00 | 99 | 1011.4 |
| 20260510005916 | 50 | 177 | 0.9 | 1.7 | 0.00 | 0.00 | 0.00 | 99 | 1011.4 |
| 20260510005412 | 50 | 112 | 1.7 | 1.7 | 0.00 | 0.00 | 0.00 | 99 | 1011.1 |
| 20260510004909 | 51 | 196 | 0.9 | 2.6 | 0.00 | 0.00 | 0.00 | 99 | 1011.1 |
| 20260510004407 | 51 | 165 | 0.0 | 3.5 | 0.00 | 0.00 | 0.00 | 99 | 1011.1 |
| 20260510003904 | 51 | 159 | 1.7 | 2.6 | 0.00 | 0.00 | 0.00 | 99 | 1010.9 |
| 20260510003401 | 52 | 190 | 1.7 | 2.6 | 0.00 | 0.00 | 0.00 | 99 | 1011.0 |
| 20260510002900 | 52 | 207 | 0.9 | 2.6 | 0.00 | 0.00 | 0.00 | 99 | 1011.0 |
| 20260510002358 | 52 | 117 | 0.0 | 0.9 | 0.00 | 0.00 | 0.00 | 99 | 1011.1 |
| 20260510001854 | 53 | 147 | 0.0 | 1.7 | 0.00 | 0.00 | 0.00 | 99 | 1011.1 |
| 20260510001352 | 53 | 119 | 0.0 | 0.9 | 0.00 | 0.00 | 0.00 | 99 | 1011.0 |
| 20260510000848 | 53 | 50 | 0.0 | 0.9 | 0.00 | 0.00 | 0.00 | 99 | 1011.0 |
| 20260510000345 | 54 | 49 | 0.0 | 0.0 | 0.00 | 0.00 | 0.00 | 98 | 1011.1 |
| 20260509235842 | 54 | 84 | 0.9 | 1.7 | 0.00 | 0.00 | 0.00 | 97 | 1011.1 |
| 20260509235338 | 55 | 69 | 0.0 | 0.9 | 0.00 | 0.00 | 0.00 | 97 | 1011.1 |
| 20260509234834 | 55 | 87 | 0.9 | 1.7 | 0.00 | 0.00 | 0.00 | 96 | 1011.0 |
| 20260509234331 | 55 | 88 | 2.6 | 2.6 | 0.00 | 0.00 | 0.00 | 95 | 1010.7 |
| 20260509233830 | 56 | 140 | 0.0 | 3.5 | 0.00 | 0.00 | 0.00 | 95 | 1010.8 |
| 20260509233327 | 56 | 256 | 1.7 | 3.5 | 0.00 | 0.00 | 0.00 | 94 | 1010.8 |
| 20260509232822 | 56 | 220 | 1.7 | 2.6 | 0.00 | 0.00 | 0.00 | 94 | 1010.8 |
| 20260509232320 | 57 | 167 | 0.9 | 4.3 | 0.00 | 0.00 | 0.00 | 93 | 1010.6 |
| 20260509231816 | 57 | 37 | 1.7 | 3.5 | 0.00 | 0.00 | 0.00 | 92 | 1010.4 |
| 20260509231313 | 57 | 97 | 0.0 | 5.2 | 0.00 | 0.00 | 0.00 | 91 | 1010.6 |
| 20260509230811 | 57 | 65 | 2.6 | 7.0 | 0.00 | 0.00 | 0.00 | 91 | 1010.5 |
| 20260509230308 | 58 | 330 | 1.7 | 6.1 | 0.00 | 0.00 | 0.00 | 89 | 1010.4 |
| 20260509225802 | 62 | 197 | 2.6 | 6.1 | 0.00 | 0.00 | 0.00 | 83 | 1010.6 |
| 20260509225300 | 62 | 165 | 4.3 | 7.0 | 0.00 | 0.00 | 0.00 | 82 | 1010.5 |
| 20260509224755 | 62 | 102 | 1.7 | 4.3 | 0.00 | 0.00 | 0.00 | 82 | 1010.6 |
| 20260509224252 | 61 | 92 | 2.6 | 6.1 | 0.00 | 0.00 | 0.00 | 84 | 1010.5 |
| 20260509223749 | 60 | 83 | 5.2 | 7.8 | 0.00 | 0.00 | 0.00 | 86 | 1010.5 |
| 20260509223246 | 60 | 213 | 4.3 | 6.1 | 0.00 | 0.00 | 0.00 | 85 | 1010.5 |
| 20260509222743 | 60 | 102 | 2.6 | 9.6 | 0.00 | 0.00 | 0.00 | 86 | 1010.6 |
| 20260509222238 | 60 | 123 | 3.5 | 7.8 | 0.00 | 0.00 | 0.00 | 86 | 1010.8 |
| 20260509221734 | 61 | 118 | 4.3 | 6.1 | 0.00 | 0.00 | 0.00 | 86 | 1010.9 |
| 20260509221231 | 60 | 79 | 2.6 | 6.1 | 0.00 | 0.00 | 0.00 | 87 | 1010.8 |
| 20260509220726 | 59 | 125 | 4.3 | 8.7 | 0.00 | 0.00 | 0.00 | 89 | 1010.6 |
| 20260509220223 | 60 | 108 | 4.3 | 7.8 | 0.00 | 0.00 | 0.00 | 87 | 1010.8 |
| 20260509215719 | 59 | 118 | 5.2 | 7.8 | 0.00 | 0.00 | 0.00 | 89 | 1010.7 |
| 20260509215215 | 58 | 180 | 0.9 | 8.7 | 0.00 | 0.00 | 0.00 | 90 | 1010.7 |
| 20260509214713 | 59 | 92 | 3.5 | 7.0 | 0.00 | 0.00 | 0.00 | 90 | 1010.8 |
| 20260509214210 | 58 | 66 | 1.7 | 7.8 | 0.00 | 0.00 | 0.00 | 92 | 1010.9 |
| 20260509213707 | 57 | 109 | 1.7 | 5.2 | 0.00 | 0.00 | 0.00 | 94 | 1011.2 |
| 20260509213202 | 57 | 83 | 3.5 | 7.0 | 0.00 | 0.00 | 0.00 | 95 | 1011.0 |
| 20260509212700 | 57 | 229 | 3.5 | 10.4 | 0.00 | 0.00 | 0.00 | 96 | 1010.9 |
| 20260509212156 | 56 | 103 | 0.9 | 3.5 | 0.00 | 0.00 | 0.00 | 96 | 1011.0 |
| 20260509211652 | 55 | 151 | 1.7 | 7.8 | 0.00 | 0.00 | 0.00 | 97 | 1011.1 |
| 20260509211149 | 55 | 342 | 0.9 | 5.2 | 0.00 | 0.00 | 0.00 | 98 | 1011.1 |
| 20260509210646 | 55 | 94 | 0.0 | 5.2 | 0.00 | 0.00 | 0.00 | 99 | 1011.1 |
| 20260509210143 | 55 | 122 | 2.6 | 7.0 | 0.00 | 0.00 | 0.00 | 99 | 1011.5 |
| 20260509205638 | 54 | 103 | 2.6 | 7.0 | 0.00 | 0.00 | 0.00 | 99 | 1011.5 |
| 20260509205132 | 55 | 290 | 1.7 | 6.1 | 0.00 | 0.00 | 0.00 | 99 | 1011.5 |
| 20260509204629 | 54 | 84 | 3.5 | 7.0 | 0.00 | 0.00 | 0.00 | 99 | 1011.6 |
| 20260509204125 | 54 | 119 | 1.7 | 8.7 | 0.00 | 0.00 | 0.00 | 99 | 1011.6 |
| 20260509203621 | 54 | 118 | 5.2 | 11.3 | 0.00 | 0.00 | 0.00 | 99 | 1011.7 |
| 20260509203120 | 55 | 124 | 3.5 | 6.1 | 0.00 | 0.00 | 0.00 | 99 | 1011.7 |
| 20260509202619 | 55 | 50 | 0.0 | 6.1 | 0.00 | 0.00 | 0.00 | 99 | 1011.6 |
| 20260509202115 | 55 | 115 | 3.5 | 7.0 | 0.00 | 0.00 | 0.00 | 99 | 1011.6 |
| 20260509201610 | 55 | 41 | 2.6 | 4.3 | 0.00 | 0.00 | 0.00 | 99 | 1011.5 |
| 20260509201109 | 54 | 129 | 0.9 | 5.2 | 0.00 | 0.00 | 0.00 | 99 | 1011.5 |
| 20260509200609 | 54 | 50 | 2.6 | 5.2 | 0.00 | 0.00 | 0.00 | 99 | 1011.4 |
| 20260509200104 | 53 | 103 | 1.7 | 7.0 | 0.00 | 0.00 | 0.00 | 99 | 1011.4 |
| 20260509195600 | 53 | 108 | 2.6 | 4.3 | 0.00 | 0.00 | 0.00 | 99 | 1011.3 |
| 20260509195055 | 53 | 187 | 0.0 | 4.3 | 0.00 | 0.00 | 0.00 | 99 | 1011.4 |
| 20260509194555 | 53 | 79 | 2.6 | 4.3 | 0.00 | 0.00 | 0.00 | 99 | 1011.5 |
| 20260509194053 | 53 | 106 | 2.6 | 4.3 | 0.00 | 0.00 | 0.00 | 99 | 1011.8 |
| 20260509193549 | 52 | 117 | 1.7 | 5.2 | 0.00 | 0.00 | 0.00 | 99 | 1011.8 |
| 20260509193045 | 53 | 113 | 2.6 | 5.2 | 0.00 | 0.00 | 0.00 | 99 | 1011.8 |
| 20260509192542 | 53 | 65 | 2.6 | 4.3 | 0.00 | 0.00 | 0.00 | 99 | 1011.9 |
| 20260509192037 | 53 | 337 | 0.0 | 3.5 | 0.00 | 0.00 | 0.00 | 99 | 1012.2 |
| 20260509191537 | 52 | 119 | 0.0 | 4.3 | 0.00 | 0.00 | 0.00 | 99 | 1012.4 |
| 20260509191033 | 52 | 103 | 0.9 | 4.3 | 0.00 | 0.00 | 0.00 | 99 | 1012.3 |
| 20260509190530 | 53 | 105 | 2.6 | 7.0 | 0.00 | 0.00 | 0.00 | 99 | 1012.3 |
| 20260509190028 | 52 | 168 | 0.9 | 3.5 | 0.00 | 0.00 | 0.00 | 99 | 1012.6 |
| 20260509185525 | 53 | 94 | 2.6 | 4.3 | 0.00 | 0.00 | 0.00 | 99 | 1012.3 |
| 20260509185021 | 52 | 139 | 4.3 | 6.1 | 0.00 | 0.00 | 0.00 | 99 | 1012.4 |
| 20260509184520 | 52 | 84 | 1.7 | 4.3 | 0.00 | 0.00 | 0.00 | 99 | 1012.6 |
| 20260509184016 | 53 | 334 | 0.9 | 5.2 | 0.00 | 0.00 | 0.00 | 99 | 1012.5 |
| 20260509183511 | 52 | 158 | 0.9 | 4.3 | 0.00 | 0.00 | 0.00 | 99 | 1012.6 |
| 20260509183007 | 53 | 134 | 1.7 | 5.2 | 0.00 | 0.00 | 0.00 | 99 | 1012.4 |
| 20260509182503 | 52 | 96 | 0.9 | 4.3 | 0.00 | 0.00 | 0.00 | 99 | 1012.6 |
| 20260509182001 | 52 | 58 | 2.6 | 4.3 | 0.00 | 0.00 | 0.00 | 99 | 1012.6 |
| 20260509181459 | 53 | 86 | 3.5 | 5.2 | 0.00 | 0.00 | 0.00 | 99 | 1012.6 |
| 20260509180956 | 53 | 208 | 3.5 | 6.1 | 0.00 | 0.00 | 0.00 | 99 | 1012.7 |
| 20260509180451 | 52 | 112 | 3.5 | 6.1 | 0.00 | 0.00 | 0.00 | 99 | 1012.5 |
| 20260509175949 | 52 | 102 | 2.6 | 4.3 | 0.00 | 0.00 | 0.00 | 99 | 1012.6 |
| 20260509175444 | 53 | 161 | 1.7 | 5.2 | 0.00 | 0.00 | 0.00 | 99 | 1012.4 |
| 20260509174941 | 52 | 81 | 0.0 | 5.2 | 0.00 | 0.00 | 0.00 | 99 | 1012.5 |
| 20260509174437 | 52 | 105 | 2.6 | 5.2 | 0.00 | 0.00 | 0.00 | 99 | 1012.4 |
| 20260509173933 | 52 | 56 | 0.9 | 7.0 | 0.00 | 0.00 | 0.00 | 99 | 1012.4 |
| 20260509173432 | 53 | 123 | 1.7 | 5.2 | 0.00 | 0.00 | 0.00 | 99 | 1012.6 |
| 20260509172929 | 53 | 113 | 0.0 | 4.3 | 0.00 | 0.00 | 0.00 | 99 | 1012.5 |
| 20260509172426 | 53 | 142 | 4.3 | 7.0 | 0.00 | 0.00 | 0.00 | 99 | 1012.3 |
| 20260509171922 | 53 | 165 | 1.7 | 7.8 | 0.00 | 0.00 | 0.00 | 99 | 1012.5 |
| 20260509171418 | 53 | 155 | 1.7 | 6.1 | 0.00 | 0.00 | 0.00 | 99 | 1012.4 |
| 20260509170915 | 53 | 76 | 0.0 | 4.3 | 0.00 | 0.00 | 0.00 | 99 | 1012.5 |
| 20260509170410 | 53 | 138 | 1.7 | 6.1 | 0.00 | 0.00 | 0.00 | 99 | 1012.5 |
| 20260509165907 | 53 | 137 | 0.0 | 4.3 | 0.00 | 0.00 | 0.00 | 99 | 1012.3 |
| 20260509165400 | 53 | 154 | 0.0 | 4.3 | 0.00 | 0.00 | 0.00 | 99 | 1012.5 |
| 20260509164856 | 53 | 234 | 0.9 | 2.6 | 0.00 | 0.00 | 0.00 | 99 | 1012.4 |
| 20260509164353 | 53 | 322 | 1.7 | 2.6 | 0.00 | 0.00 | 0.00 | 99 | 1012.5 |
| 20260509163849 | 53 | 229 | 1.7 | 4.3 | 0.00 | 0.00 | 0.00 | 99 | 1012.4 |
| 20260509163346 | 53 | 274 | 0.9 | 2.6 | 0.00 | 0.00 | 0.00 | 99 | 1012.4 |
| 20260509162845 | 53 | 234 | 0.0 | 7.8 | 0.00 | 0.00 | 0.00 | 99 | 1012.7 |
| 20260509162338 | 53 | 51 | 7.0 | 7.8 | 0.00 | 0.00 | 0.00 | 99 | 1012.6 |
| 20260509161834 | 52 | 51 | 7.0 | 7.8 | 0.00 | 0.00 | 0.00 | 99 | 1012.6 |
| 20260509161331 | 53 | 51 | 7.0 | 7.8 | 0.00 | 0.00 | 0.00 | 99 | 1012.7 |
| 20260509160827 | 53 | 51 | 7.0 | 7.8 | 0.00 | 0.00 | 0.00 | 99 | 1012.6 |
| 20260509160323 | 53 | 51 | 7.0 | 7.8 | 0.00 | 0.00 | 0.00 | 99 | 1012.6 |
| 20260509155818 | 53 | 81 | 3.5 | 8.7 | 0.00 | 0.00 | 0.00 | 99 | 1012.5 |
| 20260509155315 | 53 | 129 | 1.7 | 7.0 | 0.00 | 0.00 | 0.00 | 99 | 1012.6 |
| 20260509154811 | 53 | 99 | 2.6 | 7.0 | 0.00 | 0.00 | 0.00 | 99 | 1012.8 |
| 20260509154308 | 53 | 105 | 5.2 | 7.0 | 0.00 | 0.00 | 0.00 | 99 | 1012.5 |
| 20260509153805 | 53 | 49 | 2.6 | 5.2 | 0.00 | 0.00 | 0.00 | 99 | 1012.6 |
| 20260509153301 | 53 | 103 | 4.3 | 5.2 | 0.00 | 0.00 | 0.00 | 99 | 1012.6 |
| 20260509152758 | 52 | 121 | 3.5 | 6.1 | 0.00 | 0.00 | 0.00 | 99 | 1012.9 |
| 20260509152254 | 52 | 53 | 1.7 | 5.2 | 0.00 | 0.00 | 0.00 | 99 | 1012.7 |
| 20260509151751 | 53 | 108 | 2.6 | 4.3 | 0.00 | 0.00 | 0.00 | 99 | 1012.8 |
| 20260509151247 | 52 | 39 | 0.0 | 3.5 | 0.00 | 0.00 | 0.00 | 99 | 1012.9 |
| 20260509150745 | 52 | 117 | 2.6 | 3.5 | 0.00 | 0.00 | 0.00 | 99 | 1012.7 |
| 20260509150238 | 52 | 72 | 1.7 | 3.5 | 0.00 | 0.00 | 0.00 | 99 | 1012.9 |
| 20260509145735 | 51 | 96 | 0.0 | 2.6 | 0.00 | 0.00 | 0.00 | 99 | 1012.8 |
| 20260509145234 | 51 | 263 | 0.9 | 1.7 | 0.00 | 0.00 | 0.00 | 99 | 1012.9 |
| 20260509144732 | 51 | 89 | 2.6 | 3.5 | 0.00 | 0.00 | 0.00 | 99 | 1012.6 |
| 20260509144228 | 51 | 93 | 0.9 | 1.7 | 0.00 | 0.00 | 0.00 | 99 | 1013.1 |
| 20260509143725 | 51 | 61 | 0.9 | 3.5 | 0.00 | 0.00 | 0.00 | 99 | 1012.8 |
| 20260509143223 | 51 | 46 | 2.6 | 2.6 | 0.00 | 0.00 | 0.00 | 99 | 1013.0 |
| 20260509142718 | 51 | 114 | 1.7 | 5.2 | 0.00 | 0.00 | 0.00 | 99 | 1013.3 |
| 20260509142215 | 51 | 109 | 1.7 | 2.6 | 0.00 | 0.00 | 0.00 | 99 | 1013.2 |
| 20260509141711 | 51 | 58 | 1.7 | 3.5 | 0.00 | 0.00 | 0.00 | 99 | 1013.0 |
| 20260509141208 | 51 | 95 | 5.2 | 5.2 | 0.00 | 0.00 | 0.00 | 99 | 1013.1 |
| 20260509140704 | 51 | 28 | 0.0 | 3.5 | 0.00 | 0.00 | 0.00 | 99 | 1013.0 |
| 20260509140202 | 51 | 6 | 0.0 | 3.5 | 0.00 | 0.00 | 0.00 | 99 | 1013.0 |
| 20260509135659 | 51 | 233 | 0.0 | 4.3 | 0.00 | 0.00 | 0.00 | 99 | 1012.9 |
| 20260509135157 | 51 | 30 | 0.9 | 3.5 | 0.00 | 0.00 | 0.00 | 99 | 1013.2 |
| 20260509134653 | 51 | 58 | 2.6 | 3.5 | 0.00 | 0.00 | 0.00 | 99 | 1013.0 |
| 20260509134151 | 51 | 112 | 2.6 | 4.3 | 0.00 | 0.00 | 0.00 | 99 | 1012.9 |
| 20260509133648 | 50 | 232 | 0.0 | 1.7 | 0.00 | 0.00 | 0.00 | 99 | 1012.9 |
| 20260509133145 | 51 | 13 | 0.0 | 1.7 | 0.00 | 0.00 | 0.00 | 99 | 1012.9 |
| 20260509132643 | 50 | 102 | 0.0 | 1.7 | 0.00 | 0.00 | 0.00 | 99 | 1012.9 |
| 20260509132141 | 50 | 298 | 0.9 | 1.7 | 0.00 | 0.00 | 0.00 | 99 | 1012.9 |
| 20260509131637 | 50 | 218 | 0.0 | 2.6 | 0.00 | 0.00 | 0.00 | 99 | 1012.9 |
| 20260509131134 | 50 | 164 | 0.0 | 0.9 | 0.00 | 0.00 | 0.00 | 99 | 1012.7 |
| 20260509130630 | 50 | 89 | 0.9 | 3.5 | 0.00 | 0.00 | 0.00 | 99 | 1012.8 |
| 20260509130127 | 50 | 62 | 1.7 | 3.5 | 0.00 | 0.00 | 0.00 | 99 | 1012.9 |
| 20260509125623 | 50 | 45 | 1.7 | 2.6 | 0.00 | 0.00 | 0.00 | 99 | 1012.6 |
| 20260509125120 | 50 | 73 | 2.6 | 5.2 | 0.00 | 0.00 | 0.00 | 99 | 1012.7 |
| 20260509124616 | 50 | 333 | 1.7 | 3.5 | 0.00 | 0.00 | 0.00 | 99 | 1012.6 |
| 20260509124114 | 50 | 53 | 1.7 | 2.6 | 0.00 | 0.00 | 0.00 | 99 | 1012.6 |
| 20260509123612 | 50 | 60 | 2.6 | 2.6 | 0.00 | 0.00 | 0.00 | 99 | 1012.5 |
| 20260509123108 | 49 | 50 | 1.7 | 2.6 | 0.00 | 0.00 | 0.00 | 99 | 1012.6 |
| 20260509122604 | 49 | 29 | 0.0 | 3.5 | 0.00 | 0.00 | 0.00 | 99 | 1012.3 |
| 20260509122102 | 49 | 27 | 0.9 | 2.6 | 0.00 | 0.00 | 0.00 | 99 | 1012.6 |
| 20260509121558 | 49 | 322 | 0.0 | 2.6 | 0.00 | 0.00 | 0.00 | 99 | 1012.7 |
| 20260509121056 | 49 | 309 | 0.0 | 2.6 | 0.00 | 0.00 | 0.00 | 99 | 1012.7 |
| 20260509120554 | 49 | 50 | 0.0 | 1.7 | 0.00 | 0.00 | 0.00 | 99 | 1012.5 |
| 20260509120052 | 49 | 248 | 0.0 | 1.7 | 0.00 | 0.00 | 0.00 | 99 | 1012.7 |
| 20260509115548 | 49 | 16 | 0.0 | 1.7 | 0.00 | 0.00 | 0.00 | 99 | 1013.0 |
| 20260509115046 | 49 | 252 | 0.0 | 1.7 | 0.00 | 0.00 | 0.00 | 99 | 1012.7 |
| 20260509114544 | 48 | 49 | 0.0 | 2.6 | 0.00 | 0.00 | 0.00 | 99 | 1012.9 |
| 20260509114043 | 49 | 304 | 1.7 | 3.5 | 0.00 | 0.00 | 0.00 | 99 | 1012.8 |
| 20260509113540 | 49 | 119 | 0.0 | 2.6 | 0.00 | 0.00 | 0.00 | 99 | 1013.0 |
| 20260509113038 | 49 | 52 | 1.7 | 2.6 | 0.00 | 0.00 | 0.00 | 99 | 1012.9 |
| 20260509112534 | 49 | 223 | 0.9 | 2.6 | 0.00 | 0.00 | 0.00 | 99 | 1013.0 |
| 20260509112031 | 48 | 125 | 0.9 | 2.6 | 0.00 | 0.00 | 0.00 | 99 | 1012.9 |
| 20260509111528 | 49 | 26 | 1.7 | 2.6 | 0.00 | 0.00 | 0.00 | 99 | 1013.0 |
| 20260509111025 | 48 | 82 | 1.7 | 2.6 | 0.00 | 0.00 | 0.00 | 99 | 1013.1 |
| 20260509110522 | 49 | 74 | 2.6 | 3.5 | 0.00 | 0.00 | 0.00 | 99 | 1013.0 |
| 20260509110019 | 49 | 129 | 0.9 | 3.5 | 0.00 | 0.00 | 0.00 | 99 | 1013.1 |
| 20260509105518 | 48 | 26 | 0.0 | 2.6 | 0.00 | 0.00 | 0.00 | 99 | 1012.9 |
| 20260509105015 | 48 | 54 | 1.7 | 2.6 | 0.00 | 0.00 | 0.00 | 99 | 1013.1 |
| 20260509104512 | 48 | 99 | 0.9 | 1.7 | 0.00 | 0.00 | 0.00 | 99 | 1013.0 |
| 20260509104009 | 48 | 69 | 1.7 | 2.6 | 0.00 | 0.00 | 0.00 | 99 | 1013.0 |
| 20260509103507 | 48 | 54 | 0.9 | 2.6 | 0.00 | 0.00 | 0.00 | 99 | 1012.9 |
| 20260509103004 | 48 | 256 | 0.0 | 2.6 | 0.00 | 0.00 | 0.00 | 99 | 1012.8 |
| 20260509102502 | 48 | 50 | 0.9 | 2.6 | 0.00 | 0.00 | 0.00 | 99 | 1013.1 |
| 20260509101958 | 48 | 24 | 2.6 | 2.6 | 0.00 | 0.00 | 0.00 | 99 | 1013.0 |
| 20260509101454 | 48 | 33 | 1.7 | 3.5 | 0.00 | 0.00 | 0.00 | 99 | 1013.0 |
| 20260509100951 | 48 | 42 | 1.7 | 2.6 | 0.00 | 0.00 | 0.00 | 99 | 1013.1 |
| 20260509100448 | 48 | 73 | 0.9 | 2.6 | 0.00 | 0.00 | 0.00 | 99 | 1012.8 |
| 20260509095945 | 48 | 87 | 0.9 | 2.6 | 0.00 | 0.00 | 0.00 | 99 | 1012.9 |
| 20260509095442 | 48 | 70 | 1.7 | 2.6 | 0.00 | 0.00 | 0.00 | 99 | 1012.8 |
| 20260509094939 | 48 | 48 | 1.7 | 2.6 | 0.00 | 0.00 | 0.00 | 99 | 1012.8 |
| 20260509094435 | 48 | 58 | 0.9 | 2.6 | 0.00 | 0.00 | 0.00 | 99 | 1013.0 |
| 20260509093933 | 48 | 22 | 0.0 | 2.6 | 0.00 | 0.00 | 0.00 | 99 | 1012.9 |
| 20260509093431 | 48 | 126 | 0.9 | 1.7 | 0.00 | 0.00 | 0.00 | 99 | 1012.9 |
| 20260509092929 | 48 | 51 | 1.7 | 2.6 | 0.00 | 0.00 | 0.00 | 99 | 1012.8 |
| 20260509092426 | 48 | 26 | 0.0 | 1.7 | 0.00 | 0.00 | 0.00 | 99 | 1012.9 |
| 20260509091925 | 48 | 307 | 0.0 | 2.6 | 0.00 | 0.00 | 0.00 | 99 | 1012.9 |
| 20260509091421 | 48 | 168 | 0.0 | 1.7 | 0.00 | 0.00 | 0.00 | 99 | 1013.1 |
| 20260509090918 | 48 | 328 | 0.0 | 1.7 | 0.00 | 0.00 | 0.00 | 99 | 1013.1 |
| 20260509090415 | 48 | 173 | 0.0 | 1.7 | 0.00 | 0.00 | 0.00 | 99 | 1013.2 |
| 20260509085913 | 48 | 92 | 0.9 | 1.7 | 0.00 | 0.00 | 0.00 | 99 | 1013.2 |
| 20260509085410 | 48 | 76 | 0.9 | 2.6 | 0.00 | 0.00 | 0.00 | 99 | 1013.5 |
| 20260509084906 | 48 | 57 | 1.7 | 3.5 | 0.00 | 0.00 | 0.00 | 99 | 1013.4 |
| 20260509084403 | 48 | 70 | 1.7 | 2.6 | 0.00 | 0.00 | 0.00 | 99 | 1013.4 |
| 20260509083901 | 48 | 62 | 0.9 | 1.7 | 0.00 | 0.00 | 0.00 | 99 | 1013.6 |
| 20260509083358 | 48 | 48 | 1.7 | 1.7 | 0.00 | 0.00 | 0.00 | 99 | 1013.7 |
| 20260509082854 | 48 | 73 | 0.0 | 1.7 | 0.00 | 0.00 | 0.00 | 99 | 1013.6 |
| 20260509082351 | 48 | 126 | 0.0 | 0.9 | 0.00 | 0.00 | 0.00 | 99 | 1013.8 |
| 20260509081848 | 48 | 68 | 1.7 | 2.6 | 0.00 | 0.00 | 0.00 | 99 | 1013.6 |
| 20260509081345 | 48 | 77 | 1.7 | 2.6 | 0.00 | 0.00 | 0.00 | 99 | 1013.7 |
| 20260509080843 | 48 | 32 | 0.0 | 1.7 | 0.00 | 0.00 | 0.00 | 99 | 1013.9 |
| 20260509080341 | 48 | 47 | 1.7 | 2.6 | 0.00 | 0.00 | 0.00 | 99 | 1013.7 |
| 20260509075839 | 48 | 267 | 0.0 | 1.7 | 0.00 | 0.00 | 0.00 | 99 | 1013.8 |
| 20260509075335 | 48 | 46 | 0.9 | 1.7 | 0.00 | 0.00 | 0.00 | 99 | 1013.8 |
| 20260509074833 | 48 | 56 | 0.9 | 2.6 | 0.00 | 0.00 | 0.00 | 99 | 1013.9 |
| 20260509074331 | 48 | 173 | 0.0 | 1.7 | 0.00 | 0.00 | 0.00 | 99 | 1013.9 |
| 20260509073826 | 48 | 98 | 0.9 | 2.6 | 0.00 | 0.00 | 0.00 | 99 | 1013.8 |
| 20260509073323 | 48 | 74 | 1.7 | 3.5 | 0.00 | 0.00 | 0.00 | 99 | 1013.7 |
| 20260509072820 | 48 | 72 | 1.7 | 2.6 | 0.00 | 0.00 | 0.00 | 99 | 1013.8 |